owner,sensor,date,latitude,longitude,air_pressure(mBar),qcFlag 
TABS,ioos:station:wmo:42043:1,2003-04-01T00:09:00Z,28.9818,-94.9186,1012.14,11111222 
TABS,ioos:station:wmo:42043:1,2003-04-01T00:39:00Z,28.9818,-94.9186,1000.65,11111222 
TABS,ioos:station:wmo:42043:1,2003-04-01T01:09:00Z,28.9818,-94.9186,996.84,11111222 
TABS,ioos:station:wmo:42043:1,2003-04-01T01:39:00Z,28.9818,-94.9186,996.21,11111222 
TABS,ioos:station:wmo:42043:1,2003-04-01T02:09:00Z,28.9818,-94.9186,996.02,11111222 
TABS,ioos:station:wmo:42043:1,2003-04-01T02:39:00Z,28.9818,-94.9186,995.95,11111222 
TABS,ioos:station:wmo:42043:1,2003-04-01T03:09:00Z,28.9818,-94.9186,996.02,11111222 
TABS,ioos:station:wmo:42043:1,2003-04-01T03:39:00Z,28.9818,-94.9186,996.08,11111222 
TABS,ioos:station:wmo:42043:1,2003-04-01T04:09:00Z,28.9818,-94.9186,995.83,11111222 
TABS,ioos:station:wmo:42043:1,2003-04-01T04:39:00Z,28.9818,-94.9186,995.63,11111222 
TABS,ioos:station:wmo:42043:1,2003-04-01T05:09:00Z,28.9818,-94.9186,995.57,11111222 
TABS,ioos:station:wmo:42043:1,2003-04-01T05:39:00Z,28.9818,-94.9186,995.7,11111222 
TABS,ioos:station:wmo:42043:1,2003-04-01T06:09:00Z,28.9818,-94.9186,995.32,11111222 
TABS,ioos:station:wmo:42043:1,2003-04-01T06:39:00Z,28.9818,-94.9186,995.38,11111222 
TABS,ioos:station:wmo:42043:1,2003-04-01T07:09:00Z,28.9818,-94.9186,995.44,11111222 
TABS,ioos:station:wmo:42043:1,2003-04-01T07:39:00Z,28.9818,-94.9186,995.44,11111222 
TABS,ioos:station:wmo:42043:1,2003-04-01T08:09:00Z,28.9818,-94.9186,995.44,11111222 
TABS,ioos:station:wmo:42043:1,2003-04-01T08:39:00Z,28.9818,-94.9186,994.94,11111222 
TABS,ioos:station:wmo:42043:1,2003-04-01T09:09:00Z,28.9818,-94.9186,995.25,11111222 
TABS,ioos:station:wmo:42043:1,2003-04-01T09:39:00Z,28.9818,-94.9186,995.32,11111222 
TABS,ioos:station:wmo:42043:1,2003-04-01T10:09:00Z,28.9818,-94.9186,995.44,11111222 
TABS,ioos:station:wmo:42043:1,2003-04-01T10:39:00Z,28.9818,-94.9186,995.44,11111222 
TABS,ioos:station:wmo:42043:1,2003-04-01T11:09:00Z,28.9818,-94.9186,995.57,11111222 
TABS,ioos:station:wmo:42043:1,2003-04-01T11:39:00Z,28.9818,-94.9186,995.32,11111222 
TABS,ioos:station:wmo:42043:1,2003-04-01T12:09:00Z,28.9818,-94.9186,995.44,11111222 
TABS,ioos:station:wmo:42043:1,2003-04-01T12:39:00Z,28.9818,-94.9186,1000.84,11111222 
TABS,ioos:station:wmo:42043:1,2003-04-01T13:09:00Z,28.9818,-94.9186,1017.22,11111222 
TABS,ioos:station:wmo:42043:1,2003-04-01T13:39:00Z,28.9818,-94.9186,1025.85,11111222 
TABS,ioos:station:wmo:42043:1,2003-04-01T14:09:00Z,28.9818,-94.9186,1028.77,11111222 
TABS,ioos:station:wmo:42043:1,2003-04-01T14:39:00Z,28.9818,-94.9186,1029.4,11111222 
TABS,ioos:station:wmo:42043:1,2003-04-01T15:09:00Z,28.9818,-94.9186,1029.59,11111222 
TABS,ioos:station:wmo:42043:1,2003-04-01T16:09:00Z,28.9818,-94.9186,1028.83,11111222 
TABS,ioos:station:wmo:42043:1,2003-04-01T16:39:00Z,28.9818,-94.9186,1027.75,11111222 
TABS,ioos:station:wmo:42043:1,2003-04-01T17:09:00Z,28.9818,-94.9186,1026.48,11111222 
TABS,ioos:station:wmo:42043:1,2003-04-01T17:39:00Z,28.9818,-94.9186,1025.02,11111222 
TABS,ioos:station:wmo:42043:1,2003-04-01T18:09:00Z,28.9818,-94.9186,1024.33,11111222 
TABS,ioos:station:wmo:42043:1,2003-04-01T18:39:00Z,28.9818,-94.9186,1024.07,11111222 
TABS,ioos:station:wmo:42043:1,2003-04-01T19:09:00Z,28.9818,-94.9186,1023.75,11111222 
TABS,ioos:station:wmo:42043:1,2003-04-01T19:39:00Z,28.9818,-94.9186,1022.87,11111222 
TABS,ioos:station:wmo:42043:1,2003-04-01T20:09:00Z,28.9818,-94.9186,1023.37,11111222 
TABS,ioos:station:wmo:42043:1,2003-04-01T20:39:00Z,28.9818,-94.9186,1024.77,11111222 
TABS,ioos:station:wmo:42043:1,2003-04-01T21:09:00Z,28.9818,-94.9186,1024.96,11111222 
TABS,ioos:station:wmo:42043:1,2003-04-01T21:39:00Z,28.9818,-94.9186,1025.79,11111222 
TABS,ioos:station:wmo:42043:1,2003-04-01T22:09:00Z,28.9818,-94.9186,1024.77,11111222 
TABS,ioos:station:wmo:42043:1,2003-04-01T22:39:00Z,28.9818,-94.9186,1023.95,11111222 
TABS,ioos:station:wmo:42043:1,2003-04-01T23:09:00Z,28.9818,-94.9186,1022.49,11111222 
TABS,ioos:station:wmo:42043:1,2003-04-01T23:39:00Z,28.9818,-94.9186,1020.07,11111222 
TABS,ioos:station:wmo:42043:1,2003-04-02T00:09:00Z,28.9818,-94.9186,1012.52,11111222 
TABS,ioos:station:wmo:42043:1,2003-04-02T00:39:00Z,28.9818,-94.9186,1002.05,11111222 
TABS,ioos:station:wmo:42043:1,2003-04-02T01:09:00Z,28.9818,-94.9186,998.81,11111222 
TABS,ioos:station:wmo:42043:1,2003-04-02T01:39:00Z,28.9818,-94.9186,998.75,11111222 
TABS,ioos:station:wmo:42043:1,2003-04-02T02:09:00Z,28.9818,-94.9186,998.62,11111222 
TABS,ioos:station:wmo:42043:1,2003-04-02T02:39:00Z,28.9818,-94.9186,998.62,11111222 
TABS,ioos:station:wmo:42043:1,2003-04-02T03:09:00Z,28.9818,-94.9186,999.19,11111222 
TABS,ioos:station:wmo:42043:1,2003-04-02T03:39:00Z,28.9818,-94.9186,998.75,11111222 
TABS,ioos:station:wmo:42043:1,2003-04-02T04:09:00Z,28.9818,-94.9186,999.0,11111222 
TABS,ioos:station:wmo:42043:1,2003-04-02T04:39:00Z,28.9818,-94.9186,999.7,11111222 
TABS,ioos:station:wmo:42043:1,2003-04-02T05:09:00Z,28.9818,-94.9186,998.87,11111222 
TABS,ioos:station:wmo:42043:1,2003-04-02T05:39:00Z,28.9818,-94.9186,998.75,11111222 
TABS,ioos:station:wmo:42043:1,2003-04-02T06:09:00Z,28.9818,-94.9186,998.55,11111222 
TABS,ioos:station:wmo:42043:1,2003-04-02T06:39:00Z,28.9818,-94.9186,998.75,11111222 
TABS,ioos:station:wmo:42043:1,2003-04-02T07:09:00Z,28.9818,-94.9186,997.79,11111222 
TABS,ioos:station:wmo:42043:1,2003-04-02T07:39:00Z,28.9818,-94.9186,997.48,11111222 
TABS,ioos:station:wmo:42043:1,2003-04-02T08:09:00Z,28.9818,-94.9186,997.54,11111222 
TABS,ioos:station:wmo:42043:1,2003-04-02T08:39:00Z,28.9818,-94.9186,998.11,11111222 
TABS,ioos:station:wmo:42043:1,2003-04-02T09:09:00Z,28.9818,-94.9186,998.17,11111222 
TABS,ioos:station:wmo:42043:1,2003-04-02T09:39:00Z,28.9818,-94.9186,997.98,11111222 
TABS,ioos:station:wmo:42043:1,2003-04-02T10:09:00Z,28.9818,-94.9186,997.73,11111222 
TABS,ioos:station:wmo:42043:1,2003-04-02T10:39:00Z,28.9818,-94.9186,998.3,11111222 
TABS,ioos:station:wmo:42043:1,2003-04-02T11:09:00Z,28.9818,-94.9186,997.79,11111222 
TABS,ioos:station:wmo:42043:1,2003-04-02T11:39:00Z,28.9818,-94.9186,997.73,11111222 
TABS,ioos:station:wmo:42043:1,2003-04-02T12:09:00Z,28.9818,-94.9186,998.17,11111222 
TABS,ioos:station:wmo:42043:1,2003-04-02T13:39:00Z,28.9818,-94.9186,1031.18,11111222 
TABS,ioos:station:wmo:42043:1,2003-04-02T14:09:00Z,28.9818,-94.9186,1032.01,11111222 
TABS,ioos:station:wmo:42043:1,2003-04-02T14:39:00Z,28.9818,-94.9186,1034.67,11111222 
TABS,ioos:station:wmo:42043:1,2003-04-02T15:09:00Z,28.9818,-94.9186,1039.05,11111222 
TABS,ioos:station:wmo:42043:1,2003-04-02T16:09:00Z,28.9818,-94.9186,1034.55,11111222 
TABS,ioos:station:wmo:42043:1,2003-04-02T16:39:00Z,28.9818,-94.9186,1031.69,11111222 
TABS,ioos:station:wmo:42043:1,2003-04-02T17:09:00Z,28.9818,-94.9186,1032.39,11111222 
TABS,ioos:station:wmo:42043:1,2003-04-02T17:39:00Z,28.9818,-94.9186,1029.02,11111222 
TABS,ioos:station:wmo:42043:1,2003-04-02T18:09:00Z,28.9818,-94.9186,1029.72,11111222 
TABS,ioos:station:wmo:42043:1,2003-04-02T18:39:00Z,28.9818,-94.9186,1024.45,11111222 
TABS,ioos:station:wmo:42043:1,2003-04-02T19:09:00Z,28.9818,-94.9186,1023.12,11111222 
TABS,ioos:station:wmo:42043:1,2003-04-02T19:39:00Z,28.9818,-94.9186,1021.34,11111222 
TABS,ioos:station:wmo:42043:1,2003-04-02T20:09:00Z,28.9818,-94.9186,1019.31,11111222 
TABS,ioos:station:wmo:42043:1,2003-04-02T20:39:00Z,28.9818,-94.9186,1017.22,11111222 
TABS,ioos:station:wmo:42043:1,2003-04-02T21:09:00Z,28.9818,-94.9186,1015.06,11111222 
TABS,ioos:station:wmo:42043:1,2003-04-02T21:39:00Z,28.9818,-94.9186,1015.76,11111222 
TABS,ioos:station:wmo:42043:1,2003-04-02T22:09:00Z,28.9818,-94.9186,1013.47,11111222 
TABS,ioos:station:wmo:42043:1,2003-04-02T22:39:00Z,28.9818,-94.9186,1012.2,11111222 
TABS,ioos:station:wmo:42043:1,2003-04-02T23:09:00Z,28.9818,-94.9186,1011.12,11111222 
TABS,ioos:station:wmo:42043:1,2003-04-02T23:39:00Z,28.9818,-94.9186,1009.6,11111222 
TABS,ioos:station:wmo:42043:1,2003-04-03T00:09:00Z,28.9818,-94.9186,1003.63,11111222 
TABS,ioos:station:wmo:42043:1,2003-04-03T00:39:00Z,28.9818,-94.9186,1000.52,11111222 
TABS,ioos:station:wmo:42043:1,2003-04-03T01:09:00Z,28.9818,-94.9186,999.19,11111222 
TABS,ioos:station:wmo:42043:1,2003-04-03T01:39:00Z,28.9818,-94.9186,998.55,11111222 
TABS,ioos:station:wmo:42043:1,2003-04-03T02:09:00Z,28.9818,-94.9186,998.55,11111222 
TABS,ioos:station:wmo:42043:1,2003-04-03T02:39:00Z,28.9818,-94.9186,998.24,11111222 
TABS,ioos:station:wmo:42043:1,2003-04-03T03:09:00Z,28.9818,-94.9186,998.75,11111222 
TABS,ioos:station:wmo:42043:1,2003-04-03T03:39:00Z,28.9818,-94.9186,999.0,11111222 
TABS,ioos:station:wmo:42043:1,2003-04-03T04:09:00Z,28.9818,-94.9186,999.38,11111222 
TABS,ioos:station:wmo:42043:1,2003-04-03T04:39:00Z,28.9818,-94.9186,999.25,11111222 
TABS,ioos:station:wmo:42043:1,2003-04-03T05:09:00Z,28.9818,-94.9186,999.06,11111222 
TABS,ioos:station:wmo:42043:1,2003-04-03T05:39:00Z,28.9818,-94.9186,999.06,11111222 
TABS,ioos:station:wmo:42043:1,2003-04-03T06:09:00Z,28.9818,-94.9186,999.06,11111222 
TABS,ioos:station:wmo:42043:1,2003-04-03T06:39:00Z,28.9818,-94.9186,999.0,11111222 
TABS,ioos:station:wmo:42043:1,2003-04-03T07:09:00Z,28.9818,-94.9186,999.06,11111222 
TABS,ioos:station:wmo:42043:1,2003-04-03T07:39:00Z,28.9818,-94.9186,999.06,11111222 
TABS,ioos:station:wmo:42043:1,2003-04-03T08:09:00Z,28.9818,-94.9186,999.0,11111222 
TABS,ioos:station:wmo:42043:1,2003-04-03T08:39:00Z,28.9818,-94.9186,998.94,11111222 
TABS,ioos:station:wmo:42043:1,2003-04-03T09:09:00Z,28.9818,-94.9186,999.13,11111222 
TABS,ioos:station:wmo:42043:1,2003-04-03T09:39:00Z,28.9818,-94.9186,998.75,11111222 
TABS,ioos:station:wmo:42043:1,2003-04-03T10:09:00Z,28.9818,-94.9186,998.62,11111222 
TABS,ioos:station:wmo:42043:1,2003-04-03T10:39:00Z,28.9818,-94.9186,998.3,11111222 
TABS,ioos:station:wmo:42043:1,2003-04-03T11:09:00Z,28.9818,-94.9186,998.17,11111222 
TABS,ioos:station:wmo:42043:1,2003-04-03T11:39:00Z,28.9818,-94.9186,998.17,11111222 
TABS,ioos:station:wmo:42043:1,2003-04-03T12:09:00Z,28.9818,-94.9186,998.43,11111222 
TABS,ioos:station:wmo:42043:1,2003-04-03T12:39:00Z,28.9818,-94.9186,1002.05,11111222 
TABS,ioos:station:wmo:42043:1,2003-04-03T13:09:00Z,28.9818,-94.9186,1012.58,11111222 
TABS,ioos:station:wmo:42043:1,2003-04-03T13:39:00Z,28.9818,-94.9186,1011.12,11111222 
TABS,ioos:station:wmo:42043:1,2003-04-03T14:09:00Z,28.9818,-94.9186,1020.77,11111222 
TABS,ioos:station:wmo:42043:1,2003-04-03T14:39:00Z,28.9818,-94.9186,1038.67,11111222 
TABS,ioos:station:wmo:42043:1,2003-04-03T15:09:00Z,28.9818,-94.9186,1037.91,11111222 
TABS,ioos:station:wmo:42043:1,2003-04-03T16:09:00Z,28.9818,-94.9186,1035.69,11111222 
TABS,ioos:station:wmo:42043:1,2003-04-03T16:39:00Z,28.9818,-94.9186,1033.4,11111222 
TABS,ioos:station:wmo:42043:1,2003-04-03T17:09:00Z,28.9818,-94.9186,1031.18,11111222 
TABS,ioos:station:wmo:42043:1,2003-04-03T17:39:00Z,28.9818,-94.9186,1028.13,11111222 
TABS,ioos:station:wmo:42043:1,2003-04-03T18:09:00Z,28.9818,-94.9186,1026.55,11111222 
TABS,ioos:station:wmo:42043:1,2003-04-03T19:09:00Z,28.9818,-94.9186,1022.87,11111222 
TABS,ioos:station:wmo:42043:1,2003-04-03T19:39:00Z,28.9818,-94.9186,1023.88,11111222 
TABS,ioos:station:wmo:42043:1,2003-04-03T20:09:00Z,28.9818,-94.9186,1021.03,11111222 
TABS,ioos:station:wmo:42043:1,2003-04-03T20:39:00Z,28.9818,-94.9186,1023.63,11111222 
TABS,ioos:station:wmo:42043:1,2003-04-03T21:09:00Z,28.9818,-94.9186,1021.09,11111222 
TABS,ioos:station:wmo:42043:1,2003-04-03T21:39:00Z,28.9818,-94.9186,1016.77,11111222 
TABS,ioos:station:wmo:42043:1,2003-04-03T22:09:00Z,28.9818,-94.9186,1017.41,11111222 
TABS,ioos:station:wmo:42043:1,2003-04-03T22:39:00Z,28.9818,-94.9186,1013.22,11111222 
TABS,ioos:station:wmo:42043:1,2003-04-03T23:09:00Z,28.9818,-94.9186,1013.28,11111222 
TABS,ioos:station:wmo:42043:1,2003-04-03T23:39:00Z,28.9818,-94.9186,1011.0,11111222 
TABS,ioos:station:wmo:42043:1,2003-04-04T00:09:00Z,28.9818,-94.9186,1007.63,11111222 
TABS,ioos:station:wmo:42043:1,2003-04-04T00:39:00Z,28.9818,-94.9186,1004.46,11111222 
TABS,ioos:station:wmo:42043:1,2003-04-04T01:09:00Z,28.9818,-94.9186,1002.87,11111222 
TABS,ioos:station:wmo:42043:1,2003-04-04T01:39:00Z,28.9818,-94.9186,1002.11,11111222 
TABS,ioos:station:wmo:42043:1,2003-04-04T02:09:00Z,28.9818,-94.9186,1001.92,11111222 
TABS,ioos:station:wmo:42043:1,2003-04-04T02:39:00Z,28.9818,-94.9186,1001.79,11111222 
TABS,ioos:station:wmo:42043:1,2003-04-04T03:09:00Z,28.9818,-94.9186,1001.79,11111222 
TABS,ioos:station:wmo:42043:1,2003-04-04T03:39:00Z,28.9818,-94.9186,1001.54,11111222 
TABS,ioos:station:wmo:42043:1,2003-04-04T04:09:00Z,28.9818,-94.9186,1001.16,11111222 
TABS,ioos:station:wmo:42043:1,2003-04-04T04:39:00Z,28.9818,-94.9186,1000.97,11111222 
TABS,ioos:station:wmo:42043:1,2003-04-04T05:09:00Z,28.9818,-94.9186,1000.9,11111222 
TABS,ioos:station:wmo:42043:1,2003-04-04T05:39:00Z,28.9818,-94.9186,1000.97,11111222 
TABS,ioos:station:wmo:42043:1,2003-04-04T06:09:00Z,28.9818,-94.9186,1001.35,11111222 
TABS,ioos:station:wmo:42043:1,2003-04-04T06:39:00Z,28.9818,-94.9186,1001.03,11111222 
TABS,ioos:station:wmo:42043:1,2003-04-04T07:09:00Z,28.9818,-94.9186,1001.09,11111222 
TABS,ioos:station:wmo:42043:1,2003-04-04T07:39:00Z,28.9818,-94.9186,1000.78,11111222 
TABS,ioos:station:wmo:42043:1,2003-04-04T08:09:00Z,28.9818,-94.9186,1000.71,11111222 
TABS,ioos:station:wmo:42043:1,2003-04-04T08:39:00Z,28.9818,-94.9186,1000.65,11111222 
TABS,ioos:station:wmo:42043:1,2003-04-04T09:09:00Z,28.9818,-94.9186,1001.22,11111222 
TABS,ioos:station:wmo:42043:1,2003-04-04T09:39:00Z,28.9818,-94.9186,1001.03,11111222 
TABS,ioos:station:wmo:42043:1,2003-04-04T10:09:00Z,28.9818,-94.9186,1000.97,11111222 
TABS,ioos:station:wmo:42043:1,2003-04-04T10:39:00Z,28.9818,-94.9186,1001.22,11111222 
TABS,ioos:station:wmo:42043:1,2003-04-04T11:09:00Z,28.9818,-94.9186,1001.22,11111222 
TABS,ioos:station:wmo:42043:1,2003-04-04T11:39:00Z,28.9818,-94.9186,1001.28,11111222 
TABS,ioos:station:wmo:42043:1,2003-04-04T12:09:00Z,28.9818,-94.9186,1001.35,11111222 
TABS,ioos:station:wmo:42043:1,2003-04-04T12:39:00Z,28.9818,-94.9186,1002.62,11111222 
TABS,ioos:station:wmo:42043:1,2003-04-04T13:09:00Z,28.9818,-94.9186,1009.22,11111222 
TABS,ioos:station:wmo:42043:1,2003-04-04T13:39:00Z,28.9818,-94.9186,1032.9,11111222 
TABS,ioos:station:wmo:42043:1,2003-04-04T14:09:00Z,28.9818,-94.9186,1025.41,11111222 
TABS,ioos:station:wmo:42043:1,2003-04-04T14:39:00Z,28.9818,-94.9186,1024.71,11111222 
TABS,ioos:station:wmo:42043:1,2003-04-04T15:09:00Z,28.9818,-94.9186,1011.88,11111222 
TABS,ioos:station:wmo:42043:1,2003-04-04T16:09:00Z,28.9818,-94.9186,1014.61,11111222 
TABS,ioos:station:wmo:42043:1,2003-04-04T16:39:00Z,28.9818,-94.9186,1014.55,11111222 
TABS,ioos:station:wmo:42043:1,2003-04-04T17:09:00Z,28.9818,-94.9186,1009.28,11111222 
TABS,ioos:station:wmo:42043:1,2003-04-04T17:39:00Z,28.9818,-94.9186,1009.98,11111222 
TABS,ioos:station:wmo:42043:1,2003-04-04T18:09:00Z,28.9818,-94.9186,1017.92,11111222 
TABS,ioos:station:wmo:42043:1,2003-04-04T19:09:00Z,28.9818,-94.9186,1019.31,11111222 
TABS,ioos:station:wmo:42043:1,2003-04-04T19:39:00Z,28.9818,-94.9186,1032.83,11111222 
TABS,ioos:station:wmo:42043:1,2003-04-04T20:09:00Z,28.9818,-94.9186,1029.72,11111222 
TABS,ioos:station:wmo:42043:1,2003-04-04T20:39:00Z,28.9818,-94.9186,1026.04,11111222 
TABS,ioos:station:wmo:42043:1,2003-04-04T21:09:00Z,28.9818,-94.9186,1019.37,11111222 
TABS,ioos:station:wmo:42043:1,2003-04-04T21:39:00Z,28.9818,-94.9186,1017.09,11111222 
TABS,ioos:station:wmo:42043:1,2003-04-04T22:09:00Z,28.9818,-94.9186,1017.15,11111222 
TABS,ioos:station:wmo:42043:1,2003-04-04T22:39:00Z,28.9818,-94.9186,1016.46,11111222 
TABS,ioos:station:wmo:42043:1,2003-04-04T23:09:00Z,28.9818,-94.9186,1013.79,11111222 
TABS,ioos:station:wmo:42043:1,2003-04-04T23:39:00Z,28.9818,-94.9186,1009.73,11111222 
TABS,ioos:station:wmo:42043:1,2003-04-05T00:09:00Z,28.9818,-94.9186,1007.06,11111222 
TABS,ioos:station:wmo:42043:1,2003-04-05T00:39:00Z,28.9818,-94.9186,1004.2,11111222 
TABS,ioos:station:wmo:42043:1,2003-04-05T01:09:00Z,28.9818,-94.9186,1003.06,11111222 
TABS,ioos:station:wmo:42043:1,2003-04-05T01:39:00Z,28.9818,-94.9186,1002.17,11111222 
TABS,ioos:station:wmo:42043:1,2003-04-05T02:09:00Z,28.9818,-94.9186,1001.92,11111222 
TABS,ioos:station:wmo:42043:1,2003-04-05T02:39:00Z,28.9818,-94.9186,1002.36,11111222 
TABS,ioos:station:wmo:42043:1,2003-04-05T03:09:00Z,28.9818,-94.9186,1002.49,11111222 
TABS,ioos:station:wmo:42043:1,2003-04-05T03:39:00Z,28.9818,-94.9186,1002.81,11111222 
TABS,ioos:station:wmo:42043:1,2003-04-05T04:09:00Z,28.9818,-94.9186,1002.93,11111222 
TABS,ioos:station:wmo:42043:1,2003-04-05T04:39:00Z,28.9818,-94.9186,1003.12,11111222 
TABS,ioos:station:wmo:42043:1,2003-04-05T05:09:00Z,28.9818,-94.9186,1003.51,11111222 
TABS,ioos:station:wmo:42043:1,2003-04-05T05:39:00Z,28.9818,-94.9186,1003.32,11111222 
TABS,ioos:station:wmo:42043:1,2003-04-05T06:09:00Z,28.9818,-94.9186,1002.87,11111222 
TABS,ioos:station:wmo:42043:1,2003-04-05T06:39:00Z,28.9818,-94.9186,1002.36,11111222 
TABS,ioos:station:wmo:42043:1,2003-04-05T07:09:00Z,28.9818,-94.9186,1002.68,11111222 
TABS,ioos:station:wmo:42043:1,2003-04-05T07:39:00Z,28.9818,-94.9186,1003.0,11111222 
TABS,ioos:station:wmo:42043:1,2003-04-05T08:09:00Z,28.9818,-94.9186,1002.62,11111222 
TABS,ioos:station:wmo:42043:1,2003-04-05T08:39:00Z,28.9818,-94.9186,1002.68,11111222 
TABS,ioos:station:wmo:42043:1,2003-04-05T09:09:00Z,28.9818,-94.9186,1002.24,11111222 
TABS,ioos:station:wmo:42043:1,2003-04-05T09:39:00Z,28.9818,-94.9186,1002.3,11111222 
TABS,ioos:station:wmo:42043:1,2003-04-05T10:09:00Z,28.9818,-94.9186,1002.49,11111222 
TABS,ioos:station:wmo:42043:1,2003-04-05T10:39:00Z,28.9818,-94.9186,1002.62,11111222 
TABS,ioos:station:wmo:42043:1,2003-04-05T11:09:00Z,28.9818,-94.9186,1002.93,11111222 
TABS,ioos:station:wmo:42043:1,2003-04-05T11:39:00Z,28.9818,-94.9186,1002.81,11111222 
TABS,ioos:station:wmo:42043:1,2003-04-05T12:09:00Z,28.9818,-94.9186,1003.12,11111222 
TABS,ioos:station:wmo:42043:1,2003-04-05T12:39:00Z,28.9818,-94.9186,1003.12,11111222 
TABS,ioos:station:wmo:42043:1,2003-04-05T13:09:00Z,28.9818,-94.9186,1004.2,11111222 
TABS,ioos:station:wmo:42043:1,2003-04-05T13:39:00Z,28.9818,-94.9186,1005.54,11111222 
TABS,ioos:station:wmo:42043:1,2003-04-05T14:09:00Z,28.9818,-94.9186,1006.87,11111222 
TABS,ioos:station:wmo:42043:1,2003-04-05T14:39:00Z,28.9818,-94.9186,1010.17,11111222 
TABS,ioos:station:wmo:42043:1,2003-04-05T15:09:00Z,28.9818,-94.9186,1012.84,11111222 
TABS,ioos:station:wmo:42043:1,2003-04-05T15:39:00Z,28.9818,-94.9186,1019.88,11111222 
TABS,ioos:station:wmo:42043:1,2003-04-05T16:09:00Z,28.9818,-94.9186,1026.99,11111222 
TABS,ioos:station:wmo:42043:1,2003-04-05T16:39:00Z,28.9818,-94.9186,1028.26,11111222 
TABS,ioos:station:wmo:42043:1,2003-04-05T17:09:00Z,28.9818,-94.9186,1024.83,11111222 
TABS,ioos:station:wmo:42043:1,2003-04-05T17:39:00Z,28.9818,-94.9186,1030.99,11111222 
TABS,ioos:station:wmo:42043:1,2003-04-05T18:09:00Z,28.9818,-94.9186,1035.69,11111222 
TABS,ioos:station:wmo:42043:1,2003-04-05T18:39:00Z,28.9818,-94.9186,1034.29,11111222 
TABS,ioos:station:wmo:42043:1,2003-04-05T19:09:00Z,28.9818,-94.9186,1034.48,11111222 
TABS,ioos:station:wmo:42043:1,2003-04-05T19:39:00Z,28.9818,-94.9186,1035.94,11111222 
TABS,ioos:station:wmo:42043:1,2003-04-05T20:09:00Z,28.9818,-94.9186,1034.17,11111222 
TABS,ioos:station:wmo:42043:1,2003-04-05T20:39:00Z,28.9818,-94.9186,1030.36,11111222 
TABS,ioos:station:wmo:42043:1,2003-04-05T21:09:00Z,28.9818,-94.9186,1029.21,11111222 
TABS,ioos:station:wmo:42043:1,2003-04-05T21:39:00Z,28.9818,-94.9186,1025.28,11111222 
TABS,ioos:station:wmo:42043:1,2003-04-05T22:09:00Z,28.9818,-94.9186,1022.23,11111222 
TABS,ioos:station:wmo:42043:1,2003-04-05T22:39:00Z,28.9818,-94.9186,1018.49,11111222 
TABS,ioos:station:wmo:42043:1,2003-04-05T23:09:00Z,28.9818,-94.9186,1013.79,11111222 
TABS,ioos:station:wmo:42043:1,2003-04-05T23:39:00Z,28.9818,-94.9186,1012.9,11111222 
TABS,ioos:station:wmo:42043:1,2003-04-06T00:09:00Z,28.9818,-94.9186,1012.33,11111222 
TABS,ioos:station:wmo:42043:1,2003-04-06T00:39:00Z,28.9818,-94.9186,1008.77,11111222 
TABS,ioos:station:wmo:42043:1,2003-04-06T01:09:00Z,28.9818,-94.9186,1007.38,11111222 
TABS,ioos:station:wmo:42043:1,2003-04-06T01:39:00Z,28.9818,-94.9186,1006.68,11111222 
TABS,ioos:station:wmo:42043:1,2003-04-06T02:09:00Z,28.9818,-94.9186,1006.68,11111222 
TABS,ioos:station:wmo:42043:1,2003-04-06T02:39:00Z,28.9818,-94.9186,1007.12,11111222 
TABS,ioos:station:wmo:42043:1,2003-04-06T03:09:00Z,28.9818,-94.9186,1006.93,11111222 
TABS,ioos:station:wmo:42043:1,2003-04-06T03:39:00Z,28.9818,-94.9186,1006.93,11111222 
TABS,ioos:station:wmo:42043:1,2003-04-06T04:09:00Z,28.9818,-94.9186,1006.55,11111222 
TABS,ioos:station:wmo:42043:1,2003-04-06T04:39:00Z,28.9818,-94.9186,1006.49,11111222 
TABS,ioos:station:wmo:42043:1,2003-04-06T05:09:00Z,28.9818,-94.9186,1006.87,11111222 
TABS,ioos:station:wmo:42043:1,2003-04-06T05:39:00Z,28.9818,-94.9186,1007.06,11111222 
TABS,ioos:station:wmo:42043:1,2003-04-06T06:09:00Z,28.9818,-94.9186,1007.12,11111222 
TABS,ioos:station:wmo:42043:1,2003-04-06T06:39:00Z,28.9818,-94.9186,1007.25,11111222 
TABS,ioos:station:wmo:42043:1,2003-04-06T07:09:00Z,28.9818,-94.9186,1007.44,11111222 
TABS,ioos:station:wmo:42043:1,2003-04-06T07:39:00Z,28.9818,-94.9186,1007.38,11111222 
TABS,ioos:station:wmo:42043:1,2003-04-06T08:09:00Z,28.9818,-94.9186,1007.25,11111222 
TABS,ioos:station:wmo:42043:1,2003-04-06T08:39:00Z,28.9818,-94.9186,1007.5,11111222 
TABS,ioos:station:wmo:42043:1,2003-04-06T09:09:00Z,28.9818,-94.9186,1007.76,11111222 
TABS,ioos:station:wmo:42043:1,2003-04-06T09:39:00Z,28.9818,-94.9186,1007.76,11111222 
TABS,ioos:station:wmo:42043:1,2003-04-06T10:09:00Z,28.9818,-94.9186,1007.89,11111222 
TABS,ioos:station:wmo:42043:1,2003-04-06T10:39:00Z,28.9818,-94.9186,1008.14,11111222 
TABS,ioos:station:wmo:42043:1,2003-04-06T11:09:00Z,28.9818,-94.9186,1007.89,11111222 
TABS,ioos:station:wmo:42043:1,2003-04-06T11:39:00Z,28.9818,-94.9186,1008.01,11111222 
TABS,ioos:station:wmo:42043:1,2003-04-06T12:09:00Z,28.9818,-94.9186,1007.82,11111222 
TABS,ioos:station:wmo:42043:1,2003-04-06T12:39:00Z,28.9818,-94.9186,1008.2,11111222 
TABS,ioos:station:wmo:42043:1,2003-04-06T13:09:00Z,28.9818,-94.9186,1009.35,11111222 
TABS,ioos:station:wmo:42043:1,2003-04-06T13:39:00Z,28.9818,-94.9186,1009.79,11111222 
TABS,ioos:station:wmo:42043:1,2003-04-06T14:09:00Z,28.9818,-94.9186,1010.55,11111222 
TABS,ioos:station:wmo:42043:1,2003-04-06T14:39:00Z,28.9818,-94.9186,1013.54,11111222 
TABS,ioos:station:wmo:42043:1,2003-04-06T15:09:00Z,28.9818,-94.9186,1016.71,11111222 
TABS,ioos:station:wmo:42043:1,2003-04-06T15:39:00Z,28.9818,-94.9186,1019.88,11111222 
TABS,ioos:station:wmo:42043:1,2003-04-06T16:09:00Z,28.9818,-94.9186,1023.18,11111222 
TABS,ioos:station:wmo:42043:1,2003-04-06T16:39:00Z,28.9818,-94.9186,1025.72,11111222 
TABS,ioos:station:wmo:42043:1,2003-04-06T17:09:00Z,28.9818,-94.9186,1033.21,11111222 
TABS,ioos:station:wmo:42043:1,2003-04-06T17:39:00Z,28.9818,-94.9186,1029.53,11111222 
TABS,ioos:station:wmo:42043:1,2003-04-06T18:09:00Z,28.9818,-94.9186,1028.07,11111222 
TABS,ioos:station:wmo:42043:1,2003-04-06T18:39:00Z,28.9818,-94.9186,1029.09,11111222 
TABS,ioos:station:wmo:42043:1,2003-04-06T19:09:00Z,28.9818,-94.9186,1024.71,11111222 
TABS,ioos:station:wmo:42043:1,2003-04-06T19:39:00Z,28.9818,-94.9186,1022.8,11111222 
TABS,ioos:station:wmo:42043:1,2003-04-06T20:09:00Z,28.9818,-94.9186,1025.98,11111222 
TABS,ioos:station:wmo:42043:1,2003-04-06T20:39:00Z,28.9818,-94.9186,1024.45,11111222 
TABS,ioos:station:wmo:42043:1,2003-04-06T21:09:00Z,28.9818,-94.9186,1025.91,11111222 
TABS,ioos:station:wmo:42043:1,2003-04-06T21:39:00Z,28.9818,-94.9186,1024.96,11111222 
TABS,ioos:station:wmo:42043:1,2003-04-06T22:09:00Z,28.9818,-94.9186,1021.98,11111222 
TABS,ioos:station:wmo:42043:1,2003-04-06T22:39:00Z,28.9818,-94.9186,1019.88,11111222 
TABS,ioos:station:wmo:42043:1,2003-04-06T23:09:00Z,28.9818,-94.9186,1014.87,11111222 